This demonstration page uses our WeatherBlox Daily Observations layout. Learn more.

Left ArrowRight Arrow

34.74481, -87.66753

Hourly Observations for May 18, 2022

Temp ( °F °C ) Dew Point ( °F °C ) Humidity (%) Winds ( mph kmh ) Pressure ( in mb ) Visibility ( mi km ) Precip ( " mm )
12:53 am 00:53 Clear 61 16.1 58 14.4 90 90 Calm 29.99 1016 10 16 0.00 0.00
1:53 am 01:53 Clear 60 15.6 57 13.9 90 90 ESE 3 6 29.97 1015 10 16 0.00 0.00
2:53 am 02:53 Clear 59 15 56 13.3 90 90 Calm 29.97 1015 10 16 0.00 0.00
3:53 am 03:53 Clear 58 14.4 55 12.8 90 90 Calm 29.96 1015 10 16 0.00 0.00
4:53 am 04:53 Clear 59 15 56 13.3 90 90 Calm 29.97 1015 10 16 0.00 0.00
5:53 am 05:53 Sunny 57 13.9 54 12.2 90 90 E 3 6 29.98 1015 8 13 0.00 0.00
6:53 am 06:53 Sunny 62 16.7 58 14.4 86 86 Calm 29.99 1016 10 16 0.00 0.00
7:53 am 07:53 Sunny 67 19.4 59 15 76 76 ESE 5 7 30.00 1016 10 16 0.00 0.00
8:53 am 08:53 Sunny 76 24.4 57 13.9 52 52 S 9 15 29.98 1015 10 16 0.00 0.00
9:53 am 09:53 undefined 82 27.8 57 13.9 42 42 SW 7 11 30.01 1016 10 16 0.00 0.00
10:53 am 10:53 Mostly Sunny 84 28.9 61 16.1 46 46 SW 9 15 29.99 1016 10 16 0.00 0.00
11:53 am 11:53 Mostly Sunny 87 30.6 64 17.8 46 46 SW 14 22 29.97 1015 10 16 0.00 0.00
12:53 pm 12:53 Sunny 88 31.1 65 18.3 46 46 SSW 14 22 29.92 1013 10 16 0.00 0.00
1:53 pm 13:53 Sunny 88 31.1 66 18.9 48 48 SSW 16 26 29.88 1012 10 16 0.00 0.00
2:53 pm 14:53 Sunny 89 31.7 66 18.9 47 47 SW 14 22 29.89 1012 10 16 0.00 0.00
3:53 pm 15:53 Sunny 88 31.1 66 18.9 48 48 SW 16 26 29.85 1011 10 16 0.00 0.00
4:53 pm 16:53 Sunny 87 30.6 67 19.4 51 51 SSW 14 22 29.85 1011 10 16 0.00 0.00
5:53 pm 17:53 Sunny 88 31.1 68 20 52 52 SSW 10 17 29.84 1011 10 16 0.00 0.00
6:53 pm 18:53 Sunny 85 29.4 68 20 57 57 SSW 8 13 29.83 1010 10 16 0.00 0.00
7:53 pm 19:53 Clear 82 27.8 69 20.6 65 65 S 6 9 29.83 1010 10 16 0.00 0.00
8:53 pm 20:53 Clear 80 26.7 69 20.6 69 69 S 5 7 29.84 1010 10 16 0.00 0.00
9:53 pm 21:53 Clear 78 25.6 69 20.6 74 74 S 5 7 29.84 1011 10 16 0.00 0.00
10:53 pm 22:53 Clear 76 24.4 69 20.6 79 79 SW 3 6 29.85 1011 10 16 0.00 0.00
11:53 pm 23:53 Clear 77 25 68 20 74 74 SW 5 7 29.85 1011 10 16 0.00 0.00

Powered by AerisWeather